EJU34MQ LPFR-LFRS

Flight info

Callsign EJU34MQ
Flight time 1h 36m
Altitude 36000
Route ELVAR DCT BARDI N873 DELOG DCT YURZI UL14 TEPRA DCT EPIXO
Aircraft A320/M-SDE2E3FGHIJ1RWXYZ/LB1

Departure

Time 2026-04-29 16:11
Airport Faro - Gago Coutinho International Airport (LPFR)

Arrival

Time 2026-04-29 17:47
Airport Nantes Atlantique Airport (LFRS)
Time Latitude Longitude Altitude Speed Heading
2026-04-29 15:33 37.01907 -7.96773 20 ft 0 kts
2026-04-29 15:59 37.01903 -7.96773 20 ft 3 kts
2026-04-29 15:59 37.01877 -7.96779 21 ft 4 kts 10°
2026-04-29 15:59 37.01854 -7.96784 21 ft 2 kts 10°
2026-04-29 16:00 37.01831 -7.96785 20 ft 4 kts 327°
2026-04-29 16:00 37.01820 -7.96763 22 ft 4 kts 280°
2026-04-29 16:00 37.01816 -7.96730 21 ft 4 kts 278°
2026-04-29 16:00 37.01814 -7.96716 21 ft 0 kts 280°
2026-04-29 16:03 37.01814 -7.96718 22 ft 1 kts 280°
2026-04-29 16:03 37.01818 -7.96747 23 ft 5 kts 279°
2026-04-29 16:04 37.01824 -7.96794 21 ft 7 kts 279°
2026-04-29 16:04 37.01829 -7.96836 20 ft 2 kts 274°
2026-04-29 16:04 37.01822 -7.96868 20 ft 6 kts 240°
2026-04-29 16:04 37.01777 -7.96892 20 ft 9 kts 191°
2026-04-29 16:05 37.01712 -7.96906 20 ft 10 kts 185°
2026-04-29 16:05 37.01664 -7.96852 20 ft 10 kts 103°
2026-04-29 16:05 37.01653 -7.96773 20 ft 9 kts 100°
2026-04-29 16:05 37.01643 -7.96702 20 ft 8 kts 100°
2026-04-29 16:06 37.01631 -7.96620 20 ft 9 kts 100°
2026-04-29 16:06 37.01620 -7.96541 20 ft 11 kts 99°
2026-04-29 16:06 37.01604 -7.96422 20 ft 15 kts 100°
2026-04-29 16:06 37.01585 -7.96292 21 ft 15 kts 100°
2026-04-29 16:07 37.01566 -7.96159 20 ft 16 kts 100°
2026-04-29 16:07 37.01547 -7.96028 19 ft 14 kts 100°
2026-04-29 16:07 37.01533 -7.95926 18 ft 12 kts 99°
2026-04-29 16:07 37.01499 -7.95847 19 ft 9 kts 149°
2026-04-29 16:08 37.01472 -7.95839 19 ft 1 kts 179°
2026-04-29 16:08 37.01470 -7.95839 19 ft 0 kts 179°
2026-04-29 16:08 37.01465 -7.95839 19 ft 6 kts 179°
2026-04-29 16:08 37.01402 -7.95855 20 ft 10 kts 192°
2026-04-29 16:09 37.01347 -7.95887 21 ft 8 kts 250°
2026-04-29 16:09 37.01354 -7.95950 21 ft 0 kts 280°
2026-04-29 16:10 37.01356 -7.95964 23 ft 15 kts 280°
2026-04-29 16:10 37.01419 -7.96420 22 ft 87 kts 280°
2026-04-29 16:10 37.01558 -7.97406 27 ft 141 kts 280°
2026-04-29 16:10 37.01740 -7.98637 591 ft 142 kts 275°
2026-04-29 16:11 37.01909 -7.99837 1334 ft 138 kts 276°
2026-04-29 16:11 37.02079 -8.01013 2005 ft 137 kts 278°
2026-04-29 16:11 37.02254 -8.02176 2651 ft 135 kts 278°
2026-04-29 16:11 37.02425 -8.03324 3261 ft 135 kts 279°
2026-04-29 16:12 37.02607 -8.04572 3568 ft 156 kts 280°
2026-04-29 16:12 37.02743 -8.05481 3812 ft 166 kts 279°
2026-04-29 16:12 37.03040 -8.07507 4131 ft 194 kts 279°
2026-04-29 16:12 37.03288 -8.09241 4513 ft 208 kts 280°
2026-04-29 16:13 37.03585 -8.11043 5211 ft 213 kts 288°
2026-04-29 16:13 37.04508 -8.12494 5947 ft 224 kts 327°
2026-04-29 16:13 37.06103 -8.13012 6355 ft 255 kts 355°
2026-04-29 16:13 37.07961 -8.12811 6745 ft 280 kts
2026-04-29 16:14 37.09901 -8.12290 7428 ft 290 kts 10°
2026-04-29 16:14 37.11881 -8.11681 8175 ft 296 kts 10°
2026-04-29 16:14 37.13897 -8.11101 8999 ft 298 kts
2026-04-29 16:14 37.15948 -8.10578 9770 ft 303 kts
2026-04-29 16:15 37.18059 -8.10104 10258 ft 318 kts
2026-04-29 16:15 37.20323 -8.09646 10521 ft 340 kts
2026-04-29 16:15 37.22698 -8.09185 11089 ft 349 kts
2026-04-29 16:15 37.25118 -8.08718 11779 ft 354 kts
2026-04-29 16:16 37.27570 -8.08242 12478 ft 359 kts
2026-04-29 16:16 37.30053 -8.07758 13188 ft 363 kts
2026-04-29 16:16 37.32565 -8.07265 13844 ft 368 kts
2026-04-29 16:16 37.35110 -8.06761 14439 ft 372 kts
2026-04-29 16:17 37.37679 -8.06252 15044 ft 376 kts
2026-04-29 16:17 37.40277 -8.05734 15638 ft 380 kts
2026-04-29 16:17 37.42901 -8.05210 16220 ft 384 kts
2026-04-29 16:17 37.45551 -8.04683 16854 ft 387 kts
2026-04-29 16:18 37.48222 -8.04151 17502 ft 390 kts
2026-04-29 16:18 37.50915 -8.03618 18098 ft 394 kts
2026-04-29 16:18 37.53635 -8.03082 18608 ft 398 kts
2026-04-29 16:18 37.56379 -8.02539 19118 ft 401 kts
2026-04-29 16:19 37.59106 -8.01994 19630 ft 404 kts
2026-04-29 16:19 37.61930 -8.01528 20160 ft 404 kts 358°
2026-04-29 16:19 37.64736 -8.01211 20673 ft 405 kts 356°
2026-04-29 16:19 37.67554 -8.00985 21180 ft 407 kts 355°
2026-04-29 16:20 37.70352 -8.00795 21708 ft 409 kts 355°
2026-04-29 16:20 37.73204 -8.00599 22194 ft 412 kts 355°
2026-04-29 16:20 37.76075 -8.00378 22666 ft 416 kts 355°
2026-04-29 16:20 37.78982 -8.00129 23121 ft 419 kts 355°
2026-04-29 16:21 37.81903 -7.99859 23555 ft 423 kts 355°
2026-04-29 16:21 37.84845 -7.99576 23935 ft 425 kts 356°
2026-04-29 16:21 37.87808 -7.99289 24316 ft 428 kts 356°
2026-04-29 16:21 37.90781 -7.99003 24700 ft 430 kts 356°
2026-04-29 16:22 37.93772 -7.98716 25121 ft 433 kts 355°
2026-04-29 16:22 37.96788 -7.98431 25471 ft 435 kts 355°
2026-04-29 16:22 37.99816 -7.98150 25861 ft 438 kts 355°
2026-04-29 16:22 38.02862 -7.97868 26229 ft 440 kts 355°
2026-04-29 16:23 38.05924 -7.97585 26591 ft 442 kts 355°
2026-04-29 16:23 38.09002 -7.97300 26947 ft 445 kts 355°
2026-04-29 16:23 38.12095 -7.97014 27304 ft 447 kts 355°
2026-04-29 16:23 38.15204 -7.96721 27659 ft 449 kts 355°
2026-04-29 16:24 38.18328 -7.96425 28014 ft 451 kts 355°
2026-04-29 16:24 38.21426 -7.96132 28349 ft 453 kts 355°
2026-04-29 16:24 38.24620 -7.95831 28695 ft 456 kts 355°
2026-04-29 16:24 38.27790 -7.95533 29028 ft 458 kts 355°
2026-04-29 16:25 38.30973 -7.95235 29353 ft 460 kts 355°
2026-04-29 16:25 38.34175 -7.94935 29672 ft 462 kts 355°
2026-04-29 16:25 38.37389 -7.94632 29976 ft 464 kts 355°
2026-04-29 16:25 38.40575 -7.94330 30266 ft 466 kts 355°
2026-04-29 16:26 38.43817 -7.94025 30511 ft 468 kts 355°
2026-04-29 16:26 38.47076 -7.93716 30772 ft 470 kts 355°
2026-04-29 16:26 38.50339 -7.93404 31031 ft 471 kts 355°
2026-04-29 16:26 38.53614 -7.93085 31331 ft 472 kts 356°
2026-04-29 16:27 38.56880 -7.92765 31713 ft 470 kts 356°
2026-04-29 16:27 38.60134 -7.92424 32062 ft 471 kts 359°
2026-04-29 16:27 38.63380 -7.91591 32484 ft 481 kts
2026-04-29 16:27 38.66530 -7.90050 32854 ft 490 kts 20°
2026-04-29 16:28 38.69477 -7.87805 33198 ft 497 kts 31°
2026-04-29 16:28 38.72121 -7.84907 33568 ft 503 kts 40°
2026-04-29 16:28 38.74620 -7.81781 33925 ft 502 kts 40°
2026-04-29 16:28 38.77114 -7.78665 34230 ft 500 kts 39°
2026-04-29 16:29 38.79603 -7.75559 34542 ft 499 kts 40°
2026-04-29 16:29 38.82052 -7.72502 34821 ft 498 kts 40°
2026-04-29 16:29 38.84531 -7.69409 35103 ft 497 kts 40°
2026-04-29 16:29 38.87004 -7.66319 35390 ft 495 kts 40°
2026-04-29 16:30 38.89468 -7.63238 35702 ft 493 kts 41°
2026-04-29 16:30 38.91923 -7.60165 35853 ft 492 kts 41°
2026-04-29 16:30 38.94360 -7.57114 35877 ft 488 kts 41°
2026-04-29 16:31 38.99200 -7.51045 35875 ft 485 kts 41°
2026-04-29 16:31 39.04025 -7.44977 35874 ft 485 kts 41°
2026-04-29 16:32 39.08846 -7.38899 35868 ft 485 kts 41°
2026-04-29 16:32 39.13659 -7.32818 35893 ft 485 kts 42°
2026-04-29 16:33 39.20915 -7.23786 35891 ft 481 kts 36°
2026-04-29 16:33 39.26537 -7.19302 35868 ft 473 kts 22°
2026-04-29 16:34 39.32408 -7.15433 35855 ft 474 kts 23°
2026-04-29 16:34 39.38285 -7.11535 35879 ft 475 kts 24°
2026-04-29 16:35 39.44159 -7.07633 35883 ft 474 kts 24°
2026-04-29 16:35 39.49980 -7.03756 35885 ft 473 kts 24°
2026-04-29 16:36 39.55824 -6.99850 35883 ft 473 kts 24°
2026-04-29 16:36 39.61671 -6.95942 35894 ft 473 kts 24°
2026-04-29 16:37 39.67509 -6.92036 35886 ft 472 kts 24°
2026-04-29 16:37 39.72358 -6.88791 35885 ft 472 kts 24°
2026-04-29 16:38 39.79167 -6.84217 35862 ft 471 kts 24°
2026-04-29 16:38 39.84991 -6.80297 35881 ft 472 kts 25°
2026-04-29 16:39 39.90819 -6.76363 35876 ft 472 kts 25°
2026-04-29 16:39 39.96644 -6.72415 35881 ft 472 kts 25°
2026-04-29 16:40 40.02471 -6.68464 35881 ft 472 kts 25°
2026-04-29 16:40 40.08299 -6.64513 35897 ft 472 kts 26°
2026-04-29 16:41 40.14125 -6.60558 35883 ft 472 kts 26°
2026-04-29 16:41 40.19939 -6.56600 35880 ft 471 kts 26°
2026-04-29 16:42 40.25750 -6.52631 35876 ft 471 kts 26°
2026-04-29 16:42 40.31514 -6.48690 35893 ft 470 kts 26°
2026-04-29 16:43 40.37311 -6.44717 35865 ft 470 kts 26°
2026-04-29 16:43 40.43106 -6.40738 35853 ft 471 kts 26°
2026-04-29 16:44 40.48909 -6.36741 35856 ft 471 kts 26°
2026-04-29 16:44 40.54715 -6.32743 35858 ft 471 kts 26°
2026-04-29 16:45 40.59537 -6.29420 35854 ft 471 kts 26°
2026-04-29 16:45 40.65344 -6.25413 35856 ft 471 kts 26°
2026-04-29 16:46 40.71153 -6.21400 35864 ft 471 kts 26°
2026-04-29 16:46 40.76962 -6.17382 35873 ft 471 kts 27°
2026-04-29 16:47 40.82763 -6.13360 35877 ft 471 kts 27°
2026-04-29 16:47 40.88559 -6.09339 35877 ft 471 kts 27°
2026-04-29 16:48 40.94349 -6.05307 35860 ft 471 kts 27°
2026-04-29 16:48 41.00139 -6.01254 35874 ft 471 kts 27°
2026-04-29 16:49 41.05929 -5.97206 35870 ft 470 kts 27°
2026-04-29 16:49 41.11711 -5.93157 35871 ft 470 kts 27°
2026-04-29 16:50 41.17486 -5.89107 35867 ft 469 kts 27°
2026-04-29 16:50 41.23249 -5.85046 35877 ft 469 kts 28°
2026-04-29 16:51 41.29011 -5.80978 35873 ft 469 kts 28°
2026-04-29 16:51 41.34766 -5.76908 35871 ft 468 kts 28°
2026-04-29 16:52 41.40523 -5.72841 35866 ft 468 kts 28°
2026-04-29 16:52 41.46275 -5.68769 35857 ft 468 kts 28°
2026-04-29 16:53 41.52020 -5.64685 35865 ft 468 kts 28°
2026-04-29 16:53 41.57973 -5.61197 35865 ft 467 kts 22°
2026-04-29 16:54 41.63925 -5.57846 35865 ft 467 kts 23°
2026-04-29 16:54 41.69909 -5.54448 35874 ft 467 kts 23°
2026-04-29 16:55 41.75896 -5.51055 35866 ft 467 kts 23°
2026-04-29 16:55 41.81880 -5.47667 35870 ft 467 kts 23°
2026-04-29 16:56 41.87871 -5.44268 35874 ft 467 kts 23°
2026-04-29 16:56 41.93858 -5.40865 35870 ft 467 kts 23°
2026-04-29 16:57 41.99839 -5.37444 35865 ft 467 kts 23°
2026-04-29 16:57 42.05825 -5.34021 35863 ft 467 kts 23°
2026-04-29 16:58 42.11813 -5.30602 35853 ft 468 kts 24°
2026-04-29 16:58 42.17806 -5.27168 35850 ft 468 kts 24°
2026-04-29 16:59 42.23796 -5.23719 35851 ft 468 kts 24°
2026-04-29 16:59 42.29788 -5.20252 35856 ft 469 kts 24°
2026-04-29 17:00 42.35786 -5.16793 35856 ft 469 kts 24°
2026-04-29 17:00 42.41783 -5.13332 35853 ft 469 kts 24°
2026-04-29 17:01 42.47779 -5.09848 35858 ft 469 kts 24°
2026-04-29 17:01 42.53779 -5.06362 35870 ft 469 kts 24°
2026-04-29 17:02 42.59778 -5.02882 35864 ft 469 kts 24°
2026-04-29 17:02 42.65770 -4.99386 35860 ft 469 kts 24°
2026-04-29 17:03 42.71752 -4.95874 35856 ft 468 kts 24°
2026-04-29 17:03 42.77733 -4.92364 35834 ft 468 kts 24°
2026-04-29 17:04 42.83679 -4.88878 35841 ft 468 kts 24°
2026-04-29 17:04 42.89662 -4.85365 35845 ft 468 kts 25°
2026-04-29 17:05 42.95640 -4.81830 35849 ft 468 kts 25°
2026-04-29 17:05 43.01616 -4.78293 35848 ft 468 kts 25°
2026-04-29 17:06 43.07589 -4.74762 35851 ft 468 kts 25°
2026-04-29 17:06 43.13558 -4.71224 35853 ft 468 kts 25°
2026-04-29 17:07 43.19530 -4.67680 35846 ft 468 kts 25°
2026-04-29 17:07 43.25493 -4.64116 35839 ft 467 kts 25°
2026-04-29 17:08 43.31447 -4.60543 35829 ft 467 kts 25°
2026-04-29 17:08 43.37413 -4.56979 35812 ft 467 kts 25°
2026-04-29 17:09 43.43382 -4.53407 35811 ft 468 kts 25°
2026-04-29 17:09 43.49359 -4.49814 35815 ft 469 kts 25°
2026-04-29 17:10 43.55342 -4.46210 35825 ft 470 kts 25°
2026-04-29 17:10 43.61326 -4.42584 35825 ft 470 kts 25°
2026-04-29 17:11 43.67319 -4.38962 35825 ft 470 kts 24°
2026-04-29 17:11 43.73312 -4.35339 35826 ft 470 kts 24°
2026-04-29 17:12 43.79262 -4.31722 35832 ft 470 kts 24°
2026-04-29 17:12 43.84275 -4.28662 35832 ft 470 kts 25°
2026-04-29 17:13 43.91229 -4.24410 35827 ft 470 kts 24°
2026-04-29 17:13 43.97215 -4.20750 35829 ft 470 kts 24°
2026-04-29 17:14 44.03197 -4.17085 35836 ft 470 kts 24°
2026-04-29 17:14 44.09178 -4.13403 35839 ft 470 kts 25°
2026-04-29 17:15 44.15162 -4.09713 35836 ft 470 kts 25°
2026-04-29 17:15 44.21147 -4.06021 35847 ft 470 kts 25°
2026-04-29 17:16 44.27128 -4.02319 35844 ft 471 kts 25°
2026-04-29 17:16 44.33096 -3.98560 35842 ft 470 kts 29°
2026-04-29 17:17 44.38786 -3.94085 35842 ft 469 kts 31°
2026-04-29 17:17 44.44428 -3.89613 35839 ft 469 kts 31°
2026-04-29 17:18 44.50115 -3.85115 35838 ft 469 kts 31°
2026-04-29 17:18 44.55799 -3.80599 35831 ft 469 kts 31°
2026-04-29 17:19 44.61470 -3.76078 35841 ft 469 kts 31°
2026-04-29 17:19 44.67137 -3.71544 35848 ft 468 kts 31°
2026-04-29 17:20 44.72794 -3.67014 35857 ft 468 kts 31°
2026-04-29 17:20 44.78450 -3.62486 35856 ft 468 kts 31°
2026-04-29 17:21 44.84103 -3.57947 35856 ft 468 kts 31°
2026-04-29 17:21 44.89751 -3.53390 35857 ft 468 kts 31°
2026-04-29 17:22 44.95397 -3.48821 35863 ft 468 kts 31°
2026-04-29 17:22 45.01048 -3.44250 35864 ft 468 kts 31°
2026-04-29 17:23 45.06691 -3.39675 35871 ft 467 kts 31°
2026-04-29 17:23 45.12324 -3.35088 35882 ft 467 kts 31°
2026-04-29 17:24 45.17951 -3.30498 35879 ft 467 kts 31°
2026-04-29 17:24 45.23573 -3.25905 35878 ft 466 kts 31°
2026-04-29 17:25 45.29193 -3.21312 35878 ft 466 kts 31°
2026-04-29 17:25 45.34770 -3.16739 35877 ft 466 kts 31°
2026-04-29 17:26 45.40378 -3.12119 35874 ft 466 kts 32°
2026-04-29 17:26 45.45988 -3.07486 35852 ft 466 kts 31°
2026-04-29 17:27 45.51612 -3.02838 35854 ft 468 kts 31°
2026-04-29 17:27 45.57254 -2.98153 35861 ft 470 kts 32°
2026-04-29 17:28 45.60088 -2.95795 35729 ft 472 kts 32°
2026-04-29 17:28 45.62935 -2.93426 34582 ft 477 kts 32°
2026-04-29 17:28 45.65810 -2.91040 33433 ft 477 kts 32°
2026-04-29 17:28 45.68666 -2.88666 32378 ft 473 kts 32°
2026-04-29 17:29 45.71490 -2.86317 31440 ft 466 kts 33°
2026-04-29 17:29 45.74273 -2.83993 30561 ft 460 kts 33°
2026-04-29 17:29 45.77017 -2.81694 29658 ft 454 kts 33°
2026-04-29 17:29 45.78812 -2.80191 29096 ft 449 kts 33°
2026-04-29 17:30 45.82333 -2.77250 28506 ft 427 kts 33°
2026-04-29 17:30 45.84885 -2.75113 28008 ft 423 kts 33°
2026-04-29 17:30 45.87379 -2.73020 27573 ft 418 kts 33°
2026-04-29 17:30 45.89907 -2.70892 27105 ft 414 kts 33°
2026-04-29 17:31 45.92351 -2.68831 26630 ft 411 kts 33°
2026-04-29 17:31 45.94805 -2.66761 26164 ft 408 kts 33°
2026-04-29 17:31 45.97244 -2.64696 25689 ft 405 kts 34°
2026-04-29 17:31 45.99662 -2.62648 25193 ft 403 kts 33°
2026-04-29 17:32 46.02073 -2.60609 24690 ft 401 kts 33°
2026-04-29 17:32 46.04476 -2.58579 24191 ft 400 kts 33°
2026-04-29 17:32 46.06870 -2.56555 23681 ft 398 kts 33°
2026-04-29 17:32 46.09261 -2.54532 23119 ft 397 kts 33°
2026-04-29 17:33 46.11633 -2.52519 22616 ft 394 kts 33°
2026-04-29 17:33 46.13983 -2.50522 22130 ft 391 kts 33°
2026-04-29 17:33 46.16369 -2.48655 21682 ft 389 kts 26°
2026-04-29 17:33 46.18940 -2.47448 21234 ft 389 kts 13°
2026-04-29 17:34 46.21616 -2.46917 20770 ft 388 kts
2026-04-29 17:34 46.24291 -2.46500 20318 ft 386 kts
2026-04-29 17:34 46.26952 -2.46086 19870 ft 384 kts
2026-04-29 17:34 46.29600 -2.45669 19424 ft 382 kts
2026-04-29 17:35 46.33127 -2.45101 18828 ft 380 kts
2026-04-29 17:35 46.36550 -2.44021 18231 ft 375 kts 27°
2026-04-29 17:35 46.38790 -2.42135 17738 ft 371 kts 35°
2026-04-29 17:36 46.40952 -2.40091 17212 ft 370 kts 36°
2026-04-29 17:36 46.43104 -2.38048 16720 ft 369 kts 36°
2026-04-29 17:36 46.45222 -2.36042 16270 ft 368 kts 36°
2026-04-29 17:36 46.47360 -2.34019 15966 ft 367 kts 36°
2026-04-29 17:37 46.49438 -2.31877 15667 ft 366 kts 40°
2026-04-29 17:37 46.51450 -2.29628 15370 ft 364 kts 41°
2026-04-29 17:37 46.53449 -2.27382 15070 ft 363 kts 41°
2026-04-29 17:37 46.55440 -2.25148 14782 ft 361 kts 41°
2026-04-29 17:38 46.57431 -2.22927 14474 ft 360 kts 41°
2026-04-29 17:38 46.59414 -2.20720 14169 ft 359 kts 41°
2026-04-29 17:38 46.61393 -2.18521 13861 ft 357 kts 41°
2026-04-29 17:38 46.63363 -2.16334 13539 ft 356 kts 41°
2026-04-29 17:39 46.65327 -2.14154 13206 ft 354 kts 41°
2026-04-29 17:39 46.67271 -2.12001 12959 ft 348 kts 41°
2026-04-29 17:39 46.69178 -2.09893 12722 ft 340 kts 41°
2026-04-29 17:39 46.71039 -2.07832 12503 ft 333 kts 41°
2026-04-29 17:40 46.72832 -2.05785 12359 ft 322 kts 43°
2026-04-29 17:40 46.74568 -2.03760 12106 ft 317 kts 43°
2026-04-29 17:40 46.76277 -2.01740 11759 ft 315 kts 43°
2026-04-29 17:40 46.77973 -1.99726 11427 ft 313 kts 43°
2026-04-29 17:41 46.79656 -1.97732 11096 ft 311 kts 43°
2026-04-29 17:41 46.81337 -1.95745 10763 ft 310 kts 43°
2026-04-29 17:41 46.83008 -1.93773 10434 ft 308 kts 43°
2026-04-29 17:41 46.84675 -1.91814 10097 ft 307 kts 43°
2026-04-29 17:42 46.86332 -1.89871 9770 ft 306 kts 43°
2026-04-29 17:42 46.88032 -1.87873 8895 ft 318 kts 43°
2026-04-29 17:42 46.89763 -1.85835 8032 ft 321 kts 43°
2026-04-29 17:42 46.91478 -1.83818 7199 ft 320 kts 44°
2026-04-29 17:43 46.93205 -1.81783 6384 ft 318 kts 44°
2026-04-29 17:43 46.94854 -1.79659 5537 ft 311 kts 52°
2026-04-29 17:43 46.96214 -1.77247 4724 ft 305 kts 56°
2026-04-29 17:43 46.97570 -1.74897 3907 ft 301 kts 49°
2026-04-29 17:44 46.99310 -1.73213 3350 ft 296 kts 32°
2026-04-29 17:44 47.01091 -1.71880 2940 ft 278 kts 33°
2026-04-29 17:44 47.02759 -1.70617 2588 ft 262 kts 33°
2026-04-29 17:44 47.04343 -1.69414 2260 ft 252 kts 33°
2026-04-29 17:45 47.05871 -1.68254 1926 ft 241 kts 33°
2026-04-29 17:45 47.07321 -1.67155 1609 ft 229 kts 33°
2026-04-29 17:45 47.08692 -1.66115 1315 ft 214 kts 32°
2026-04-29 17:45 47.09959 -1.65154 1048 ft 197 kts 32°
2026-04-29 17:46 47.11133 -1.64262 801 ft 180 kts 30°
2026-04-29 17:46 47.12189 -1.63461 613 ft 162 kts 28°
2026-04-29 17:46 47.13166 -1.62728 377 ft 153 kts 30°
2026-04-29 17:46 47.14091 -1.62011 136 ft 147 kts 30°
2026-04-29 17:47 47.14924 -1.61369 89 ft 115 kts 27°
2026-04-29 17:47 47.15479 -1.60952 90 ft 65 kts 27°
2026-04-29 17:47 47.15803 -1.60706 83 ft 40 kts 25°
2026-04-29 17:47 47.15965 -1.60578 84 ft 18 kts 27°
2026-04-29 17:48 47.15998 -1.60461 87 ft 10 kts 113°
2026-04-29 17:48 47.15986 -1.60428 91 ft 0 kts 118°
2026-04-29 17:48 47.15986 -1.60427 90 ft 1 kts 118°
2026-04-29 17:48 47.15977 -1.60400 90 ft 7 kts 116°
2026-04-29 17:49 47.15966 -1.60324 89 ft 7 kts 70°
2026-04-29 17:49 47.15988 -1.60295 89 ft 1 kts 30°
2026-04-29 17:49 47.15989 -1.60295 89 ft 0 kts 30°
2026-04-29 17:49 47.15989 -1.60294 89 ft 1 kts 30°
2026-04-29 17:50 47.15991 -1.60292 89 ft 2 kts 38°
2026-04-29 17:50 47.15993 -1.60255 91 ft 6 kts 114°
2026-04-29 17:50 47.15977 -1.60210 92 ft 2 kts 116°
2026-04-29 17:50 47.15974 -1.60200 92 ft 2 kts 117°
2026-04-29 17:51 47.15971 -1.60192 92 ft 2 kts 117°
2026-04-29 17:51 47.15970 -1.60190 92 ft 0 kts 117°